Wind_Speed
13 12 14 17 21 23 26 27 19 10 5 6 10 12 16 29 34 36 32 33 34 36 34 34 38 39 37 30 26 28 29 30 23 22 21 20 14 11 13 15 18 17 18
14 13 10 11 15 20 24 27 24 14 5 6 10 13 17 31 36 31 31 31 33 36 34 36 40 38 33 29 27 27 26 18 17 15 11 8 11 12 8 17 16 16 22
15 16 15 13 10 15 18 23 25 15 4 11 13 16 20 29 34 33 32 30 35 34 34 37 38 35 31 30 26 26 19 11 6 4 3 8 9 13 15 23 22 17 18
18 16 16 14 13 9 14 18 24 20 7 12 14 17 24 27 29 30 30 34 36 36 35 36 33 32 29 28 27 21 10 4 3 7 7 6 13 14 21 22 20 15 19
22 17 16 14 12 9 9 12 16 19 8 6 17 18 25 26 27 28 31 32 35 34 34 35 34 28 26 29 29 17 7 8 5 3 1 8 7 17 18 16 18 18 16
27 22 19 15 9 9 6 9 12 14 8 2 10 20 23 26 28 34 33 34 36 34 36 36 32 25 15 22 24 18 9 5 4 5 5 5 9 18 12 7 11 11 12
34 30 23 19 14 10 7 4 9 11 8 4 11 17 27 30 37 37 37 43 40 32 32 26 25 19 16 16 23 17 8 2 6 6 4 4 9 18 8 4 10 9 7
42 36 28 23 17 14 8 6 3 9 8 3 13 20 27 34 38 41 41 39 38 33 30 25 21 20 18 13 14 10 9 8 8 7 7 6 15 19 15 12 9 8 5
46 41 34 27 22 18 13 9 7 6 8 2 15 21 25 31 35 40 37 34 34 33 27 21 16 17 20 20 17 14 9 9 7 7 6 8 16 14 14 9 7 2 1
49 46 42 33 28 25 18 14 12 10 9 5 9 22 22 27 36 39 36 29 29 28 25 21 20 22 24 23 19 17 16 14 13 13 11 11 18 14 10 6 3 1 2
52 52 50 41 35 32 27 23 18 16 12 11 9 17 26 27 33 38 35 28 24 23 28 24 24 24 21 20 20 15 14 14 14 17 20 18 19 17 14 11 9 8 8
47 55 55 50 45 39 36 30 21 23 19 13 17 17 21 28 33 38 36 31 28 24 25 26 25 23 19 19 19 16 15 15 15 17 20 20 19 17 15 13 10 11 13
48 51 58 58 53 46 41 37 30 26 23 23 23 22 24 25 29 33 33 29 27 26 22 20 22 23 22 21 19 20 19 19 19 21 22 22 22 20 17 15 16 14 14
49 50 54 61 61 56 46 43 38 33 28 28 28 27 27 26 26 29 33 34 32 28 25 23 24 22 22 22 21 20 21 22 24 25 27 25 23 22 21 22 19 18 20
48 52 53 55 62 60 56 48 47 40 37 30 29 30 29 30 31 32 32 30 29 26 23 24 26 27 25 26 28 26 23 23 27 29 29 27 25 26 25 22 23 24 24
46 48 54 57 58 65 63 58 52 47 46 39 34 32 33 34 34 37 36 35 32 31 30 30 31 29 28 27 28 27 25 27 29 32 31 29 30 30 30 31 32 32 32
52 51 52 58 63 65 69 67 60 54 50 45 41 34 35 37 39 38 38 40 39 35 33 32 31 31 29 28 27 28 30 31 32 31 34 34 34 35 37 38 40 41 41
53 55 55 57 64 69 72 74 71 63 57 55 49 46 49 42 43 41 41 40 39 38 36 38 37 37 33 34 33 34 34 35 36 37 37 39 39 39 40 42 43 45 48
48 56 59 60 62 70 73 76 76 71 64 63 56 50 52 49 44 44 38 34 37 40 43 44 42 39 39 37 37 38 38 41 42 43 42 42 43 44 46 45 46 47 49
55 55 57 65 64 69 76 78 79 74 69 69 64 60 59 51 46 47 43 46 47 44 46 46 45 46 44 44 43 40 40 42 44 45 43 45 47 48 51 54 54 54 55
63 61 59 64 65 69 76 80 83 82 76 72 69 65 63 65 56 52 52 52 53 50 57 60 55 53 50 50 53 51 49 49 48 50 50 51 51 52 54 57 59 62 64
61 61 60 64 68 69 73 81 83 87 87 84 73 70 65 61 56 49 48 41 44 53 59 59 51 52 57 56 58 54 47 47 56 60 54 55 57 57 59 61 61 61 62
45 54 59 62 68 70 72 73 81 84 90 88 84 76 71 65 63 58 54 50 41 42 48 52 55 56 59 59 53 48 49 57 60 61 65 68 66 66 67 68 69 71 72
34 46 54 58 64 68 70 73 73 82 83 85 87 82 76 72 69 61 56 57 52 49 47 60 49 50 49 55 58 56 67 73 69 71 71 72 73 74 77 80 81 81 85
23 39 46 54 57 62 64 68 74 75 82 78 84 84 76 70 64 67 60 55 57 67 60 61 61 56 62 54 54 59 62 67 71 71 71 78 81 82 83 85 89 92 95
13 21 36 45 50 55 56 59 69 74 74 77 70 77 76 79 79 74 68 58 64 69 57 61 66 66 66 67 71 72 74 79 82 85 85 86 85 87 91 95 97 98 102
Wind_Direction
328 338 354 357 12 18 19 18 14 23 63 76 47 88 127 147 147 149 157 159 158 159 158 153 153 150 143 138 137 134 128 119 107 96 101 105 93 80 39 38 83 81 79
295 313 336 342 0 11 14 15 17 22 73 115 97 105 137 148 146 154 159 157 160 156 155 154 149 148 145 142 143 144 136 117 109 98 92 121 77 44 65 79 97 88 80
284 301 327 334 341 3 9 13 14 23 74 116 118 120 132 146 156 160 158 158 155 155 152 151 152 145 147 146 150 149 134 107 102 63 46 68 98 87 80 92 82 91 77
264 276 293 333 319 339 1 5 11 17 39 123 127 134 137 140 155 159 158 156 157 155 149 151 148 142 146 152 150 149 140 143 104 90 24 94 72 113 99 91 86 83 81
253 265 276 297 308 314 349 357 12 17 37 167 139 146 155 150 160 159 160 162 157 155 155 153 147 140 136 158 158 139 166 184 203 226 210 146 65 130 126 99 87 71 63
253 255 264 275 286 290 318 343 0 18 33 126 146 152 153 161 165 159 158 156 155 152 152 153 153 152 154 169 179 165 151 218 248 161 174 100 112 156 144 92 92 68 65
245 253 250 260 267 256 282 338 337 3 25 133 155 159 157 164 162 164 163 161 161 163 159 156 159 167 169 166 171 186 220 242 270 201 176 128 136 164 136 114 112 89 92
241 249 248 245 254 247 244 274 301 318 353 162 163 164 166 166 168 170 172 170 169 174 174 172 163 174 187 195 191 203 197 213 204 179 182 183 159 152 140 131 115 100 88
237 242 245 244 245 250 236 242 247 266 301 24 170 170 181 177 177 175 176 176 177 183 184 178 186 186 208 216 202 181 187 201 216 217 226 185 158 150 150 140 139 138 7
232 234 240 236 237 235 245 243 242 223 250 250 173 174 177 185 188 183 173 173 181 185 186 200 194 201 186 175 181 187 199 209 216 222 225 207 187 182 177 198 203 186 302
228 230 235 230 237 237 236 238 234 224 213 221 199 176 176 179 186 190 189 196 193 195 195 201 190 182 184 189 196 206 214 223 215 208 202 192 190 199 200 218 236 254 261
231 226 228 230 232 233 235 233 227 230 205 206 211 191 178 179 181 192 193 196 203 202 190 192 189 195 207 213 220 230 234 242 229 218 213 207 209 209 218 231 258 280 284
230 229 228 227 233 231 231 233 225 221 210 210 213 202 192 186 183 188 191 198 196 199 207 212 214 211 215 226 236 242 249 254 240 231 228 223 223 227 234 240 251 259 265
232 230 228 228 228 233 232 233 228 222 215 212 215 212 203 195 194 196 195 195 200 209 223 225 225 223 230 240 247 254 254 253 245 234 227 230 227 233 243 248 249 255 263
234 229 228 228 228 229 228 229 229 223 218 214 213 215 215 212 210 207 206 204 208 218 224 229 234 236 239 243 245 249 247 246 242 234 232 232 237 243 250 252 258 264 264
237 233 226 226 228 225 226 224 221 225 220 213 211 218 222 223 220 219 220 221 220 222 230 238 244 239 238 245 246 241 234 229 235 234 237 243 248 253 252 260 263 260 264
241 237 233 225 225 226 224 225 220 220 220 214 207 220 221 227 225 226 226 226 229 233 230 227 235 235 241 241 242 241 242 242 243 245 248 255 260 262 263 266 269 268 265
244 242 235 232 224 226 226 225 225 224 222 219 211 203 213 227 228 224 224 228 233 232 233 234 236 240 243 243 241 243 248 250 250 254 255 258 262 264 267 270 272 273 273
244 243 240 234 230 224 226 226 226 226 224 217 212 209 218 224 228 229 235 234 242 240 237 236 237 239 244 247 250 250 254 258 261 259 259 260 263 267 269 268 270 271 271
251 245 244 237 231 227 224 225 225 224 223 215 215 213 213 219 229 222 234 247 249 254 245 243 240 243 243 247 256 258 257 261 263 264 265 269 271 272 273 274 277 277 277
254 252 245 242 230 229 225 222 223 220 220 219 216 219 219 223 234 230 241 249 246 249 253 254 247 251 252 255 258 260 262 268 263 261 262 265 269 271 273 276 278 280 280
251 246 239 236 230 226 227 223 223 222 222 225 225 222 226 227 225 236 235 240 254 251 252 251 257 264 265 260 259 261 261 258 264 261 263 267 269 271 274 278 279 281 282
258 238 228 227 227 225 224 226 224 224 223 224 227 225 226 229 228 230 234 247 244 240 246 251 260 257 258 262 258 262 266 267 267 268 270 273 273 275 278 279 279 279 281
253 233 229 223 225 224 224 224 226 226 225 224 227 226 226 231 235 233 238 238 242 246 253 249 250 258 253 248 257 251 260 264 269 266 270 273 271 272 279 280 281 281 285
270 237 223 224 224 226 226 225 224 227 226 224 226 228 228 230 234 233 232 242 245 247 244 247 244 251 256 259 258 258 261 263 268 271 269 270 274 277 279 281 284 285 287
307 243 220 219 225 228 228 228 225 227 229 225 222 228 229 229 232 234 231 230 239 236 232 239 247 252 251 255 263 265 264 260 261 267 271 275 276 280 283 286 286 286 286
Height
10946 10945 10943 10939 10935 10932 10927 10923 10919 10915 10914 10914 10914 10911 10912 10915 10919 10924 10927 10932 10937 10943 10948 10954 10960 10966 10971 10974 10979 10986 10987 10986 10988 10988 10989 10989 10989 10988 10986 10984 10984 10986 10982
10946 10944 10943 10941 10937 10934 10929 10926 10921 10918 10917 10918 10918 10916 10917 10918 10921 10926 10932 10937 10940 10945 10951 10958 10962 10967 10972 10976 10981 10986 10987 10988 10989 10991 10992 10992 10993 10992 10989 10987 10988 10990 10987
10945 10945 10943 10941 10937 10935 10932 10929 10927 10924 10922 10920 10922 10920 10920 10921 10924 10928 10935 10940 10945 10950 10953 10961 10966 10969 10973 10978 10982 10986 10988 10989 10990 10992 10992 10993 10994 10996 10992 10991 10991 10993 10991
10943 10944 10944 10942 10940 10938 10935 10931 10928 10925 10924 10922 10924 10924 10923 10926 10931 10935 10939 10943 10948 10954 10956 10963 10968 10972 10975 10980 10983 10986 10987 10989 10990 10992 10993 10993 10994 10996 10997 10995 10995 10995 10994
10940 10942 10943 10943 10943 10941 10938 10936 10934 10931 10928 10929 10926 10928 10928 10929 10934 10938 10943 10948 10952 10957 10960 10966 10969 10973 10977 10981 10983 10987 10988 10989 10990 10992 10994 10993 10994 10995 10997 10997 10997 10997 10997
10937 10940 10941 10943 10943 10943 10941 10938 10936 10935 10933 10932 10932 10930 10932 10934 10937 10940 10943 10950 10956 10960 10964 10969 10973 10975 10979 10982 10985 10987 10988 10989 10991 10991 10994 10993 10994 10995 10998 10998 10999 10999 11000
10932 10937 10938 10939 10942 10941 10942 10938 10938 10936 10936 10935 10935 10936 10933 10938 10940 10944 10946 10950 10956 10961 10966 10970 10974 10976 10979 10981 10984 10986 10987 10987 10990 10991 10992 10993 10995 10997 10997 10997 10998 10999 11001
10926 10929 10935 10936 10939 10940 10940 10939 10938 10940 10938 10937 10938 10939 10940 10941 10945 10947 10950 10952 10956 10962 10965 10970 10972 10975 10978 10981 10984 10985 10986 10987 10990 10991 10992 10993 10994 10996 10998 10999 10999 11000 11000
10919 10923 10928 10932 10936 10938 10939 10939 10938 10940 10939 10938 10939 10941 10944 10944 10947 10951 10954 10956 10959 10963 10966 10970 10973 10975 10978 10979 10982 10984 10986 10988 10989 10990 10991 10991 10993 10994 10998 11000 11001 11000 11001
10909 10916 10920 10927 10930 10933 10936 10937 10937 10939 10940 10939 10940 10941 10943 10946 10949 10952 10956 10959 10961 10964 10968 10970 10973 10975 10976 10978 10982 10984 10986 10987 10988 10990 10990 10990 10991 10993 10996 10998 10998 10998 10999
10899 10904 10909 10916 10923 10927 10929 10933 10936 10938 10939 10941 10941 10941 10943 10945 10950 10954 10958 10962 10963 10965 10967 10970 10973 10975 10975 10979 10981 10983 10984 10985 10986 10987 10987 10989 10990 10992 10993 10994 10995 10995 10995
10888 10894 10901 10906 10911 10917 10923 10927 10931 10935 10937 10938 10943 10942 10942 10944 10946 10951 10956 10960 10964 10966 10967 10970 10972 10975 10976 10978 10979 10982 10982 10981 10981 10982 10984 10985 10987 10989 10990 10991 10992 10992 10993
10877 10882 10889 10897 10903 10909 10916 10921 10925 10928 10933 10935 10939 10940 10943 10945 10947 10948 10952 10957 10960 10966 10968 10969 10970 10972 10974 10976 10978 10979 10978 10979 10979 10979 10981 10983 10984 10986 10987 10988 10988 10988 10988
10866 10872 10878 10884 10893 10900 10909 10912 10917 10923 10926 10929 10932 10936 10940 10944 10946 10950 10951 10954 10958 10960 10964 10966 10967 10969 10971 10972 10974 10975 10976 10976 10977 10979 10980 10981 10981 10982 10983 10984 10984 10985 10985
10854 10860 10867 10873 10880 10888 10897 10904 10909 10913 10918 10922 10926 10930 10935 10939 10942 10945 10948 10951 10953 10957 10959 10961 10963 10965 10967 10969 10970 10971 10972 10973 10975 10975 10976 10977 10978 10978 10978 10979 10980 10979 10979
10841 10845 10853 10861 10866 10875 10881 10889 10897 10902 10908 10911 10918 10924 10927 10933 10936 10940 10943 10947 10948 10950 10954 10957 10959 10961 10961 10963 10963 10965 10967 10968 10969 10970 10971 10972 10972 10972 10972 10972 10972 10971 10970
10829 10835 10840 10848 10852 10858 10864 10873 10883 10889 10896 10903 10909 10912 10922 10926 10929 10933 10937 10940 10942 10945 10946 10947 10950 10954 10956 10956 10958 10959 10960 10961 10962 10964 10964 10964 10964 10964 10964 10964 10964 10963 10961
10816 10820 10827 10833 10838 10843 10849 10856 10866 10877 10885 10893 10898 10902 10907 10914 10919 10924 10928 10933 10937 10937 10939 10941 10941 10944 10948 10950 10950 10951 10954 10954 10955 10955 10955 10955 10955 10955 10955 10954 10954 10953 10952
10802 10805 10810 10817 10822 10828 10835 10844 10852 10862 10872 10881 10887 10892 10897 10906 10912 10915 10920 10924 10927 10929 10929 10932 10933 10936 10939 10941 10942 10943 10944 10945 10946 10946 10946 10945 10944 10943 10943 10943 10941 10940 10940
10786 10791 10793 10796 10804 10812 10819 10829 10839 10849 10859 10868 10877 10882 10888 10895 10901 10905 10911 10914 10919 10921 10922 10923 10926 10928 10930 10932 10934 10934 10933 10934 10935 10935 10935 10934 10934 10933 10933 10931 10931 10929 10928
10767 10771 10777 10778 10788 10794 10801 10810 10821 10834 10846 10856 10864 10872 10879 10884 10891 10897 10902 10905 10907 10910 10913 10915 10916 10919 10921 10921 10923 10923 10922 10923 10922 10923 10923 10923 10921 10921 10920 10919 10918 10915 10913
10740 10746 10753 10757 10767 10774 10782 10794 10806 10819 10832 10842 10853 10860 10867 10873 10880 10885 10891 10894 10894 10895 10900 10904 10906 10907 10908 10910 10910 10910 10910 10909 10906 10907 10909 10908 10907 10905 10905 10904 10902 10900 10897
10716 10722 10730 10737 10747 10759 10768 10779 10791 10800 10812 10824 10835 10845 10853 10861 10867 10875 10881 10882 10882 10886 10890 10892 10893 10893 10896 10898 10898 10897 10896 10896 10891 10892 10892 10892 10893 10890 10889 10887 10885 10882 10880
10698 10705 10715 10722 10733 10744 10753 10766 10775 10785 10797 10810 10819 10829 10837 10846 10852 10858 10866 10871 10873 10876 10876 10878 10878 10878 10880 10883 10883 10884 10883 10881 10880 10877 10875 10874 10873 10872 10870 10867 10865 10861 10858
10693 10693 10702 10712 10723 10732 10743 10752 10762 10770 10781 10796 10803 10812 10824 10832 10838 10844 10850 10857 10860 10861 10860 10863 10865 10865 10868 10869 10868 10869 10867 10865 10863 10863 10861 10858 10856 10852 10849 10846 10842 10839 10835
10691 10690 10697 10706 10716 10723 10731 10740 10749 10757 10766 10778 10791 10798 10808 10816 10824 10828 10834 10838 10841 10842 10844 10845 10849 10851 10853 10854 10853 10851 10850 10848 10844 10842 10840 10837 10833 10831 10827 10823 10819 10814 10809